Location: Potawatomi Wildlife Park
(41.2308°N, 86.1050°W)
Time: 23:38:18
(UTC-05:00)

Hubble Space Telescope - Visible Passes

Search period start: 12 February 2016 00:00
Search period end: 22 February 2016 00:00
Orbit: 540 x 543 km, 28.5° (Epoch: 12 February)

Date Brightness Start Highest point End Pass type
(mag) Time Alt. Az. Time Alt. Az. Time Alt. Az.
12 Feb 3.2 19:58:56 10° S 19:59:56 11° SSE 19:59:59 11° SSE visible
13 Feb 3.1 19:48:46 10° SSW 19:50:21 12° S 19:51:10 11° SSE visible
14 Feb 3.1 19:38:52 10° SSW 19:40:46 13° S 19:42:21 11° SSE visible
15 Feb 3.1 19:29:07 10° SSW 19:31:12 14° S 19:33:17 10° SE visible
16 Feb 3.2 19:19:26 10° SSW 19:21:37 14° S 19:23:47 10° SSE visible
17 Feb 3.2 19:09:51 10° SSW 19:12:01 14° S 19:14:12 10° SSE visible
18 Feb 3.2 19:00:21 10° SW 19:02:27 14° S 19:04:33 10° SSE visible
19 Feb 3.3 18:50:55 10° SW 18:52:51 13° S 18:54:47 10° SSE visible
